Time,TemperatureF,DewpointF,PressureIn,WindDirection,WindDirectionDegrees,WindSpeedMPH,WindSpeedGustMPH,Humidity,HourlyPrecipIn,Conditions,Clouds,dailyrainin,SoftwareType,DateUTC
2013-05-25 00:00:00,64.5,29.6,29.77,WSW,242,11.0,22.0,27,0.00,,,0.00,WUHU216DAVISVP2,2013-05-25 07:00:00,
2013-05-25 00:05:00,64.7,29.8,29.77,WSW,240,13.0,22.0,27,0.00,,,0.00,WUHU216DAVISVP2,2013-05-25 07:05:00,
2013-05-25 00:10:00,64.7,29.9,29.77,WSW,246,14.0,22.0,27,0.00,,,0.00,WUHU216DAVISVP2,2013-05-25 07:10:00,
2013-05-25 00:15:00,64.8,29.1,29.77,West,269,16.0,23.0,26,0.00,,,0.00,WUHU216DAVISVP2,2013-05-25 07:15:00,
2013-05-25 00:20:00,65.0,30.2,29.77,WSW,241,8.0,23.0,27,0.00,,,0.00,WUHU216DAVISVP2,2013-05-25 07:20:00,
2013-05-25 00:25:00,65.1,29.2,29.77,SW,219,13.0,23.0,26,0.00,,,0.00,WUHU216DAVISVP2,2013-05-25 07:25:00,
2013-05-25 00:30:00,64.9,29.9,29.77,WSW,250,15.0,21.0,27,0.00,,,0.00,WUHU216DAVISVP2,2013-05-25 07:30:00,
2013-05-25 00:35:00,64.4,30.4,29.77,SW,227,10.0,21.0,28,0.00,,,0.00,WUHU216DAVISVP2,2013-05-25 07:35:00,
2013-05-25 00:40:00,64.2,30.2,29.77,WSW,244,8.0,21.0,28,0.00,,,0.00,WUHU216DAVISVP2,2013-05-25 07:40:00,
2013-05-25 00:45:00,64.4,29.5,29.77,WSW,255,10.0,23.0,27,0.00,,,0.00,WUHU216DAVISVP2,2013-05-25 07:45:00,
2013-05-25 00:50:00,64.4,29.5,29.77,WSW,257,4.0,23.0,27,0.00,,,0.00,WUHU216DAVISVP2,2013-05-25 07:50:00,
2013-05-25 00:55:00,64.3,29.4,29.77,SW,229,17.0,23.0,27,0.00,,,0.00,WUHU216DAVISVP2,2013-05-25 07:55:00,
2013-05-25 01:00:00,64.1,29.3,29.77,WSW,252,15.0,20.0,27,0.00,,,0.00,WUHU216DAVISVP2,2013-05-25 08:00:00,
2013-05-25 01:05:00,64.3,28.5,29.77,SW,229,13.0,20.0,26,0.00,,,0.00,WUHU216DAVISVP2,2013-05-25 08:05:00,
2013-05-25 01:10:00,64.4,29.5,29.77,SW,230,16.0,20.0,27,0.00,,,0.00,WUHU216DAVISVP2,2013-05-25 08:10:00,
2013-05-25 01:15:00,64.1,30.1,29.77,WSW,242,8.0,23.0,28,0.00,,,0.00,WUHU216DAVISVP2,2013-05-25 08:15:00,
2013-05-25 01:20:00,63.7,30.6,29.77,SW,236,19.0,23.0,29,0.00,,,0.00,WUHU216DAVISVP2,2013-05-25 08:20:00,
2013-05-25 01:26:00,63.5,30.5,29.77,WSW,253,12.0,23.0,29,0.00,,,0.00,WUHU216DAVISVP2,2013-05-25 08:26:00,
2013-05-25 01:31:00,63.3,30.3,29.77,WSW,237,15.0,23.0,29,0.00,,,0.00,WUHU216DAVISVP2,2013-05-25 08:31:00,
2013-05-25 01:36:00,63.3,30.3,29.77,WSW,252,12.0,23.0,29,0.00,,,0.00,WUHU216DAVISVP2,2013-05-25 08:36:00,
2013-05-25 01:41:00,63.2,30.2,29.77,WSW,244,12.0,23.0,29,0.00,,,0.00,WUHU216DAVISVP2,2013-05-25 08:41:00,
2013-05-25 01:46:00,63.2,30.2,29.77,WSW,237,20.0,24.0,29,0.00,,,0.00,WUHU216DAVISVP2,2013-05-25 08:46:00,
2013-05-25 01:51:00,63.2,29.4,29.77,WSW,254,18.0,24.0,28,0.00,,,0.00,WUHU216DAVISVP2,2013-05-25 08:51:00,
2013-05-25 01:56:00,63.2,29.4,29.77,WSW,250,16.0,24.0,28,0.00,,,0.00,WUHU216DAVISVP2,2013-05-25 08:56:00,
2013-05-25 02:01:00,63.2,29.4,29.77,WSW,242,14.0,24.0,28,0.00,,,0.00,WUHU216DAVISVP2,2013-05-25 09:01:00,
2013-05-25 02:06:00,63.1,29.3,29.76,WSW,246,14.0,20.0,28,0.00,,,0.00,WUHU216DAVISVP2,2013-05-25 09:06:00,
2013-05-25 02:11:00,63.2,28.5,29.76,WSW,244,16.0,21.0,27,0.00,,,0.00,WUHU216DAVISVP2,2013-05-25 09:11:00,
2013-05-25 02:16:00,63.3,28.6,29.76,WSW,254,9.0,21.0,27,0.00,,,0.00,WUHU216DAVISVP2,2013-05-25 09:16:00,
2013-05-25 02:22:00,63.5,27.8,29.76,WSW,240,14.0,21.0,26,0.00,,,0.00,WUHU216DAVISVP2,2013-05-25 09:22:00,
2013-05-25 02:27:00,63.6,27.0,29.76,West,263,8.0,21.0,25,0.00,,,0.00,WUHU216DAVISVP2,2013-05-25 09:27:00,
2013-05-25 02:32:00,63.5,26.9,29.76,WSW,242,7.0,21.0,25,0.00,,,0.00,WUHU216DAVISVP2,2013-05-25 09:32:00,
2013-05-25 02:37:00,63.3,26.7,29.76,SW,235,10.0,21.0,25,0.00,,,0.00,WUHU216DAVISVP2,2013-05-25 09:37:00,
2013-05-25 02:42:00,63.1,27.5,29.76,West,261,8.0,17.0,26,0.00,,,0.00,WUHU216DAVISVP2,2013-05-25 09:42:00,
2013-05-25 02:47:00,63.1,27.5,29.76,WSW,248,13.0,15.0,26,0.00,,,0.00,WUHU216DAVISVP2,2013-05-25 09:47:00,
2013-05-25 02:52:00,62.8,27.2,29.76,WSW,242,7.0,15.0,26,0.00,,,0.00,WUHU216DAVISVP2,2013-05-25 09:52:00,
2013-05-25 02:57:00,62.4,26.9,29.76,WSW,242,7.0,15.0,26,0.00,,,0.00,WUHU216DAVISVP2,2013-05-25 09:57:00,
2013-05-25 03:02:00,62.4,26.9,29.76,WSW,246,8.0,15.0,26,0.00,,,0.00,WUHU216DAVISVP2,2013-05-25 10:02:00,
2013-05-25 03:07:00,62.8,27.2,29.76,WSW,240,7.0,13.0,26,0.00,,,0.00,WUHU216DAVISVP2,2013-05-25 10:07:00,
2013-05-25 03:12:00,62.9,27.3,29.76,SW,235,8.0,13.0,26,0.00,,,0.00,WUHU216DAVISVP2,2013-05-25 10:12:00,
2013-05-25 03:17:00,62.9,28.2,29.76,SW,227,9.0,13.0,27,0.00,,,0.00,WUHU216DAVISVP2,2013-05-25 10:17:00,
2013-05-25 03:22:00,62.6,28.0,29.76,SW,236,4.0,13.0,27,0.00,,,0.00,WUHU216DAVISVP2,2013-05-25 10:22:00,
2013-05-25 03:27:00,62.5,27.9,29.76,West,265,1.0,13.0,27,0.00,,,0.00,WUHU216DAVISVP2,2013-05-25 10:27:00,
2013-05-25 03:32:00,62.2,27.6,29.76,SW,228,0.0,13.0,27,0.00,,,0.00,WUHU216DAVISVP2,2013-05-25 10:32:00,
2013-05-25 03:37:00,61.8,28.3,29.76,SW,228,0.0,8.0,28,0.00,,,0.00,WUHU216DAVISVP2,2013-05-25 10:37:00,
2013-05-25 03:42:00,61.6,29.0,29.76,SW,228,0.0,8.0,29,0.00,,,0.00,WUHU216DAVISVP2,2013-05-25 10:42:00,
2013-05-25 03:47:00,61.4,28.8,29.76,SW,228,5.0,5.0,29,0.00,,,0.00,WUHU216DAVISVP2,2013-05-25 10:47:00,
2013-05-25 03:52:00,61.1,29.4,29.76,SW,228,0.0,6.0,30,0.00,,,0.00,WUHU216DAVISVP2,2013-05-25 10:52:00,
2013-05-25 03:58:00,60.8,28.9,29.76,SW,228,0.0,6.0,30,0.00,,,0.00,WUHU216DAVISVP2,2013-05-25 10:58:00,
2013-05-25 04:03:00,60.5,29.5,29.76,SSW,209,6.0,7.0,31,0.00,,,0.00,WUHU216DAVISVP2,2013-05-25 11:03:00,
2013-05-25 04:08:00,60.7,29.7,29.75,SW,232,7.0,13.0,31,0.00,,,0.00,WUHU216DAVISVP2,2013-05-25 11:08:00,
2013-05-25 04:13:00,60.9,29.8,29.75,SW,225,7.0,15.0,31,0.00,,,0.00,WUHU216DAVISVP2,2013-05-25 11:13:00,
2013-05-25 04:18:00,61.0,29.9,29.76,SW,223,10.0,15.0,31,0.00,,,0.00,WUHU216DAVISVP2,2013-05-25 11:18:00,
2013-05-25 04:23:00,60.8,30.7,29.75,WSW,239,14.0,15.0,32,0.00,,,0.00,WUHU216DAVISVP2,2013-05-25 11:23:00,
2013-05-25 04:28:00,61.0,30.1,29.75,SW,226,8.0,16.0,31,0.00,,,0.00,WUHU216DAVISVP2,2013-05-25 11:28:00,
2013-05-25 04:33:00,61.0,30.1,29.75,SW,230,9.0,17.0,31,0.00,,,0.00,WUHU216DAVISVP2,2013-05-25 11:33:00,
2013-05-25 04:38:00,61.1,30.2,29.75,SW,225,14.0,17.0,31,0.00,,,0.00,WUHU216DAVISVP2,2013-05-25 11:38:00,
2013-05-25 04:43:00,60.9,29.8,29.75,SW,225,10.0,17.0,31,0.00,,,0.00,WUHU216DAVISVP2,2013-05-25 11:43:00,
2013-05-25 04:48:00,60.9,29.8,29.75,SW,236,15.0,17.0,31,0.00,,,0.00,WUHU216DAVISVP2,2013-05-25 11:48:00,
2013-05-25 04:53:00,60.9,29.8,29.75,SW,221,13.0,17.0,31,0.00,,,0.00,WUHU216DAVISVP2,2013-05-25 11:53:00,
2013-05-25 04:58:00,60.5,29.5,29.75,SW,232,9.0,17.0,31,0.00,,,0.00,WUHU216DAVISVP2,2013-05-25 11:58:00,
2013-05-25 05:03:00,60.5,29.5,29.75,West,263,4.0,17.0,31,0.00,,,0.00,WUHU216DAVISVP2,2013-05-25 12:03:00,
2013-05-25 05:08:00,59.9,29.0,29.75,SSW,196,6.0,17.0,31,0.00,,,0.00,WUHU216DAVISVP2,2013-05-25 12:08:00,
2013-05-25 05:13:00,60.5,29.5,29.75,SW,223,7.0,15.0,31,0.00,,,0.00,WUHU216DAVISVP2,2013-05-25 12:13:00,
2013-05-25 05:18:00,60.7,29.7,29.75,SSW,209,7.0,15.0,31,0.00,,,0.00,WUHU216DAVISVP2,2013-05-25 12:18:00,
2013-05-25 05:23:00,60.7,29.9,29.75,SW,219,4.0,15.0,31,0.00,,,0.00,WUHU216DAVISVP2,2013-05-25 12:23:00,
2013-05-25 05:28:00,60.9,29.2,29.75,SW,214,8.0,15.0,30,0.00,,,0.00,WUHU216DAVISVP2,2013-05-25 12:28:00,
2013-05-25 05:33:00,60.9,29.2,29.75,SW,225,11.0,14.0,30,0.00,,,0.00,WUHU216DAVISVP2,2013-05-25 12:33:00,
2013-05-25 05:38:00,60.8,29.9,29.75,SW,215,13.0,16.0,31,0.00,,,0.00,WUHU216DAVISVP2,2013-05-25 12:38:00,
2013-05-25 05:43:00,61.1,29.2,29.75,SW,217,11.0,17.0,30,0.00,,,0.00,WUHU216DAVISVP2,2013-05-25 12:43:00,
2013-05-25 05:48:00,61.2,29.3,29.75,SSW,198,11.0,17.0,30,0.00,,,0.00,WUHU216DAVISVP2,2013-05-25 12:48:00,
2013-05-25 05:53:00,61.5,28.7,29.75,SW,236,5.0,17.0,29,0.00,,,0.00,WUHU216DAVISVP2,2013-05-25 12:53:00,
2013-05-25 05:58:00,60.2,28.4,29.75,WNW,283,2.0,13.0,30,0.00,,,0.00,WUHU216DAVISVP2,2013-05-25 12:58:00,
2013-05-25 06:03:00,59.0,28.2,29.76,WNW,295,4.0,13.0,31,0.00,,,0.00,WUHU216DAVISVP2,2013-05-25 13:03:00,
2013-05-25 06:08:00,58.9,28.1,29.75,WSW,238,3.0,12.0,31,0.00,,,0.00,WUHU216DAVISVP2,2013-05-25 13:08:00,
2013-05-25 06:13:00,59.9,29.0,29.75,WSW,238,4.0,8.0,31,0.00,,,0.00,WUHU216DAVISVP2,2013-05-25 13:13:00,
2013-05-25 06:18:00,60.4,28.6,29.76,NW,323,2.0,7.0,30,0.00,,,0.00,WUHU216DAVISVP2,2013-05-25 13:18:00,
2013-05-25 06:23:00,61.5,29.6,29.76,SW,232,6.0,14.0,30,0.00,,,0.00,WUHU216DAVISVP2,2013-05-25 13:23:00,
2013-05-25 06:28:00,62.5,29.8,29.76,SW,232,7.0,14.0,29,0.00,,,0.00,WUHU216DAVISVP2,2013-05-25 13:28:00,
2013-05-25 06:33:00,63.3,29.6,29.76,SW,236,6.0,14.0,28,0.00,,,0.00,WUHU216DAVISVP2,2013-05-25 13:33:00,
2013-05-25 06:39:00,63.6,29.9,29.76,WSW,238,5.0,14.0,28,0.00,,,0.00,WUHU216DAVISVP2,2013-05-25 13:39:00,
2013-05-25 06:44:00,63.6,29.9,29.77,SW,232,9.0,12.0,28,0.00,,,0.00,WUHU216DAVISVP2,2013-05-25 13:44:00,
2013-05-25 06:49:00,62.8,30.0,29.76,WSW,248,13.0,17.0,29,0.00,,,0.00,WUHU216DAVISVP2,2013-05-25 13:49:00,
2013-05-25 06:54:00,62.9,29.9,29.76,WSW,248,13.0,17.0,29,0.00,,,0.00,WUHU216DAVISVP2,2013-05-25 13:54:00,
2013-05-25 06:59:00,63.7,30.6,29.76,SW,216,10.0,17.0,29,0.00,,,0.00,WUHU216DAVISVP2,2013-05-25 13:59:00,
2013-05-25 07:04:00,64.7,29.8,29.76,SW,233,6.0,17.0,27,0.00,,,0.00,WUHU216DAVISVP2,2013-05-25 14:04:00,
2013-05-25 07:09:00,64.8,29.9,29.76,WSW,242,8.0,17.0,27,0.00,,,0.00,WUHU216DAVISVP2,2013-05-25 14:09:00,
2013-05-25 07:14:00,64.9,29.9,29.76,SW,225,14.0,17.0,27,0.00,,,0.00,WUHU216DAVISVP2,2013-05-25 14:14:00,
2013-05-25 07:19:00,64.3,30.3,29.77,WSW,249,12.0,17.0,28,0.00,,,0.00,WUHU216DAVISVP2,2013-05-25 14:19:00,
2013-05-25 07:24:00,64.7,30.7,29.76,SW,232,13.0,17.0,28,0.00,,,0.00,WUHU216DAVISVP2,2013-05-25 14:24:00,
2013-05-25 07:29:00,65.4,30.4,29.76,SW,234,14.0,20.0,27,0.00,,,0.00,WUHU216DAVISVP2,2013-05-25 14:29:00,
2013-05-25 07:34:00,65.7,30.6,29.77,SW,227,12.0,20.0,27,0.00,,,0.00,WUHU216DAVISVP2,2013-05-25 14:34:00,
2013-05-25 07:39:00,65.6,30.5,29.77,SSW,211,13.0,20.0,27,0.00,,,0.00,WUHU216DAVISVP2,2013-05-25 14:39:00,
2013-05-25 07:44:00,65.4,30.4,29.77,SW,232,12.0,20.0,27,0.00,,,0.00,WUHU216DAVISVP2,2013-05-25 14:44:00,
2013-05-25 07:49:00,65.5,30.5,29.77,SW,226,12.0,19.0,27,0.00,,,0.00,WUHU216DAVISVP2,2013-05-25 14:49:00,
2013-05-25 07:54:00,66.1,30.1,29.77,WSW,246,8.0,19.0,26,0.00,,,0.00,WUHU216DAVISVP2,2013-05-25 14:54:00,
2013-05-25 07:59:00,67.6,30.4,29.77,NW,311,9.0,19.0,25,0.00,,,0.00,WUHU216DAVISVP2,2013-05-25 14:59:00,
2013-05-25 08:04:00,68.2,29.9,29.77,NNW,338,5.0,18.0,24,0.00,,,0.00,WUHU216DAVISVP2,2013-05-25 15:04:00,
2013-05-25 08:09:00,68.9,29.5,29.77,NW,308,2.0,17.0,23,0.00,,,0.00,WUHU216DAVISVP2,2013-05-25 15:09:00,
2013-05-25 08:14:00,67.7,30.5,29.77,South,191,9.0,20.0,25,0.00,,,0.00,WUHU216DAVISVP2,2013-05-25 15:14:00,
2013-05-25 08:19:00,66.7,29.6,29.77,SW,232,14.0,21.0,25,0.00,,,0.00,WUHU216DAVISVP2,2013-05-25 15:19:00,
2013-05-25 08:24:00,66.8,29.7,29.77,SSW,203,16.0,21.0,25,0.00,,,0.00,WUHU216DAVISVP2,2013-05-25 15:24:00,
2013-05-25 08:29:00,67.0,29.9,29.77,SSW,208,14.0,20.0,25,0.00,,,0.00,WUHU216DAVISVP2,2013-05-25 15:29:00,
2013-05-25 08:34:00,67.5,29.3,29.77,SSW,213,11.0,20.0,24,0.00,,,0.00,WUHU216DAVISVP2,2013-05-25 15:34:00,
2013-05-25 08:39:00,67.6,30.5,29.77,SSW,202,12.0,18.0,25,0.00,,,0.00,WUHU216DAVISVP2,2013-05-25 15:39:00,
2013-05-25 08:44:00,68.0,30.8,29.77,SSW,209,13.0,19.0,25,0.00,,,0.00,WUHU216DAVISVP2,2013-05-25 15:44:00,
2013-05-25 08:49:00,68.5,29.2,29.77,WSW,244,9.0,19.0,23,0.00,,,0.00,WUHU216DAVISVP2,2013-05-25 15:49:00,
2013-05-25 08:54:00,69.1,30.8,29.78,SW,227,8.0,19.0,24,0.00,,,0.00,WUHU216DAVISVP2,2013-05-25 15:54:00,
2013-05-25 08:59:00,69.0,30.7,29.77,SSW,195,4.0,19.0,24,0.00,,,0.00,WUHU216DAVISVP2,2013-05-25 15:59:00,
2013-05-25 09:04:00,69.2,29.8,29.77,SSW,192,16.0,20.0,23,0.00,,,0.00,WUHU216DAVISVP2,2013-05-25 16:04:00,
2013-05-25 09:10:00,68.9,29.5,29.77,South,186,17.0,22.0,23,0.00,,,0.00,WUHU216DAVISVP2,2013-05-25 16:10:00,
2013-05-25 09:15:00,69.3,29.8,29.77,SSW,194,13.0,22.0,23,0.00,,,0.00,WUHU216DAVISVP2,2013-05-25 16:15:00,
2013-05-25 09:20:00,69.8,30.2,29.77,SSW,202,15.0,22.0,23,0.00,,,0.00,WUHU216DAVISVP2,2013-05-25 16:20:00,
2013-05-25 09:25:00,70.3,29.6,29.77,South,185,10.0,22.0,22,0.00,,,0.00,WUHU216DAVISVP2,2013-05-25 16:25:00,
2013-05-25 09:30:00,70.8,28.9,29.77,SW,223,14.0,20.0,21,0.00,,,0.00,WUHU216DAVISVP2,2013-05-25 16:30:00,
2013-05-25 09:35:00,71.8,29.7,29.77,SSW,211,7.0,20.0,21,0.00,,,0.00,WUHU216DAVISVP2,2013-05-25 16:35:00,
2013-05-25 09:40:00,72.2,28.8,29.77,SW,219,12.0,20.0,20,0.00,,,0.00,WUHU216DAVISVP2,2013-05-25 16:40:00,
2013-05-25 09:45:00,72.5,29.1,29.77,SSW,211,11.0,17.0,20,0.00,,,0.00,WUHU216DAVISVP2,2013-05-25 16:45:00,
2013-05-25 09:50:00,73.1,29.6,29.77,SW,214,13.0,17.0,20,0.00,,,0.00,WUHU216DAVISVP2,2013-05-25 16:50:00,
2013-05-25 09:55:00,72.5,29.1,29.77,SSW,213,9.0,17.0,20,0.00,,,0.00,WUHU216DAVISVP2,2013-05-25 16:55:00,
2013-05-25 10:00:00,73.1,29.6,29.77,SSW,205,11.0,17.0,20,0.00,,,0.00,WUHU216DAVISVP2,2013-05-25 17:00:00,
2013-05-25 10:05:00,73.2,28.4,29.76,SSW,202,12.0,15.0,19,0.00,,,0.00,WUHU216DAVISVP2,2013-05-25 17:05:00,
2013-05-25 10:10:00,72.4,27.8,29.76,SSW,200,7.0,17.0,19,0.00,,,0.00,WUHU216DAVISVP2,2013-05-25 17:10:00,
2013-05-25 10:15:00,72.8,28.1,29.76,SSW,200,8.0,17.0,19,0.00,,,0.00,WUHU216DAVISVP2,2013-05-25 17:15:00,
2013-05-25 10:20:00,73.2,28.4,29.77,SSW,209,11.0,17.0,19,0.00,,,0.00,WUHU216DAVISVP2,2013-05-25 17:20:00,
2013-05-25 10:25:00,73.3,28.5,29.77,SW,217,9.0,17.0,19,0.00,,,0.00,WUHU216DAVISVP2,2013-05-25 17:25:00,
2013-05-25 10:30:00,74.0,29.1,29.77,SSW,207,14.0,16.0,19,0.00,,,0.00,WUHU216DAVISVP2,2013-05-25 17:30:00,
2013-05-25 10:36:00,74.0,29.1,29.77,SW,215,13.0,17.0,19,0.00,,,0.00,WUHU216DAVISVP2,2013-05-25 17:36:00,
2013-05-25 10:41:00,74.1,27.8,29.77,SW,234,9.0,17.0,18,0.00,,,0.00,WUHU216DAVISVP2,2013-05-25 17:41:00,
2013-05-25 10:46:00,74.9,28.5,29.77,South,178,12.0,17.0,18,0.00,,,0.00,WUHU216DAVISVP2,2013-05-25 17:46:00,
2013-05-25 10:51:00,74.6,28.3,29.77,South,182,10.0,18.0,18,0.00,,,0.00,WUHU216DAVISVP2,2013-05-25 17:51:00,
2013-05-25 10:56:00,74.9,27.1,29.77,South,181,13.0,18.0,17,0.00,,,0.00,WUHU216DAVISVP2,2013-05-25 17:56:00,
2013-05-25 11:01:00,75.4,27.5,29.77,SSW,205,9.0,18.0,17,0.00,,,0.00,WUHU216DAVISVP2,2013-05-25 18:01:00,
2013-05-25 11:06:00,75.6,27.7,29.76,South,185,11.0,18.0,17,0.00,,,0.00,WUHU216DAVISVP2,2013-05-25 18:06:00,
2013-05-25 11:11:00,75.6,26.2,29.76,SSE,165,7.0,18.0,16,0.00,,,0.00,WUHU216DAVISVP2,2013-05-25 18:11:00,
2013-05-25 11:16:00,75.7,24.7,29.77,SSE,163,11.0,17.0,15,0.00,,,0.00,WUHU216DAVISVP2,2013-05-25 18:16:00,
2013-05-25 11:21:00,75.7,26.3,29.77,South,175,13.0,17.0,16,0.00,,,0.00,WUHU216DAVISVP2,2013-05-25 18:21:00,
2013-05-25 11:26:00,75.8,26.4,29.77,SE,145,12.0,17.0,16,0.00,,,0.00,WUHU216DAVISVP2,2013-05-25 18:26:00,
2013-05-25 11:31:00,76.1,26.6,29.76,South,176,5.0,15.0,16,0.00,,,0.00,WUHU216DAVISVP2,2013-05-25 18:31:00,
2013-05-25 11:36:00,76.8,27.2,29.77,SSE,152,7.0,16.0,16,0.00,,,0.00,WUHU216DAVISVP2,2013-05-25 18:36:00,
2013-05-25 11:41:00,76.8,27.2,29.77,SSW,194,10.0,16.0,16,0.00,,,0.00,WUHU216DAVISVP2,2013-05-25 18:41:00,
2013-05-25 11:46:00,76.8,25.6,29.76,SE,140,6.0,18.0,15,0.00,,,0.00,WUHU216DAVISVP2,2013-05-25 18:46:00,
2013-05-25 11:51:00,77.2,25.9,29.77,South,172,12.0,18.0,15,0.00,,,0.00,WUHU216DAVISVP2,2013-05-25 18:51:00,
2013-05-25 11:56:00,77.1,27.4,29.77,SSE,168,7.0,18.0,16,0.00,,,0.00,WUHU216DAVISVP2,2013-05-25 18:56:00,
2013-05-25 12:01:00,77.4,26.1,29.76,SSE,148,9.0,18.0,15,0.00,,,0.00,WUHU216DAVISVP2,2013-05-25 19:01:00,
2013-05-25 12:06:00,77.5,26.1,29.76,SSW,198,7.0,18.0,15,0.00,,,0.00,WUHU216DAVISVP2,2013-05-25 19:06:00,
2013-05-25 12:11:00,77.8,26.4,29.76,SSE,155,6.0,16.0,15,0.00,,,0.00,WUHU216DAVISVP2,2013-05-25 19:11:00,
2013-05-25 12:16:00,77.8,26.4,29.76,SW,216,10.0,17.0,15,0.00,,,0.00,WUHU216DAVISVP2,2013-05-25 19:16:00,
2013-05-25 12:21:00,78.0,26.5,29.76,South,182,11.0,17.0,15,0.00,,,0.00,WUHU216DAVISVP2,2013-05-25 19:21:00,
2013-05-25 12:26:00,78.5,25.2,29.76,SSE,167,8.0,19.0,14,0.00,,,0.00,WUHU216DAVISVP2,2013-05-25 19:26:00,
2013-05-25 12:31:00,78.4,26.9,29.76,SSW,211,9.0,19.0,15,0.00,,,0.00,WUHU216DAVISVP2,2013-05-25 19:31:00,
2013-05-25 12:36:00,78.6,27.0,29.76,SSW,206,7.0,19.0,15,0.00,,,0.00,WUHU216DAVISVP2,2013-05-25 19:36:00,
2013-05-25 12:42:00,79.3,27.6,29.76,SW,233,9.0,19.0,15,0.00,,,0.00,WUHU216DAVISVP2,2013-05-25 19:42:00,
2013-05-25 12:47:00,79.5,27.7,29.75,SSW,208,13.0,17.0,15,0.00,,,0.00,WUHU216DAVISVP2,2013-05-25 19:47:00,
2013-05-25 12:52:00,78.9,25.6,29.75,SE,136,7.0,17.0,14,0.00,,,0.00,WUHU216DAVISVP2,2013-05-25 19:52:00,
2013-05-25 12:57:00,79.1,27.5,29.75,SSW,198,8.0,17.0,15,0.00,,,0.00,WUHU216DAVISVP2,2013-05-25 19:57:00,
2013-05-25 13:02:00,80.1,28.3,29.75,SSW,201,8.0,17.0,15,0.00,,,0.00,WUHU216DAVISVP2,2013-05-25 20:02:00,
2013-05-25 13:07:00,80.0,26.4,29.75,South,186,9.0,16.0,14,0.00,,,0.00,WUHU216DAVISVP2,2013-05-25 20:07:00,
2013-05-25 13:12:00,79.9,26.3,29.75,South,170,13.0,18.0,14,0.00,,,0.00,WUHU216DAVISVP2,2013-05-25 20:12:00,
2013-05-25 13:17:00,80.1,26.5,29.75,SSW,206,7.0,18.0,14,0.00,,,0.00,WUHU216DAVISVP2,2013-05-25 20:17:00,
2013-05-25 13:22:00,80.3,26.7,29.75,SW,234,13.0,17.0,14,0.00,,,0.00,WUHU216DAVISVP2,2013-05-25 20:22:00,
2013-05-25 13:27:00,80.5,26.9,29.75,SSE,161,12.0,17.0,14,0.00,,,0.00,WUHU216DAVISVP2,2013-05-25 20:27:00,
2013-05-25 13:32:00,80.6,25.2,29.75,SSW,193,11.0,20.0,13,0.00,,,0.00,WUHU216DAVISVP2,2013-05-25 20:32:00,
2013-05-25 13:39:00,80.1,26.5,29.74,SSW,197,13.0,20.0,14,0.00,,,0.00,WUHU216DAVISVP2,2013-05-25 20:39:00,
2013-05-25 13:56:00,81.2,25.5,29.74,SSW,205,10.0,20.0,13,0.00,,,0.00,WUHU216DAVISVP2,2013-05-25 20:56:00,
2013-05-25 14:03:00,81.4,25.7,29.74,SSW,210,14.0,20.0,13,0.00,,,0.00,WUHU216DAVISVP2,2013-05-25 21:03:00,
2013-05-25 14:08:00,81.4,25.7,29.74,SW,234,14.0,20.0,13,0.00,,,0.00,WUHU216DAVISVP2,2013-05-25 21:08:00,
2013-05-25 14:13:00,81.6,25.8,29.74,WSW,248,14.0,20.0,13,0.00,,,0.00,WUHU216DAVISVP2,2013-05-25 21:13:00,
2013-05-25 14:18:00,81.6,25.8,29.74,SW,219,17.0,22.0,13,0.00,,,0.00,WUHU216DAVISVP2,2013-05-25 21:18:00,
2013-05-25 14:23:00,81.1,27.3,29.74,SW,214,8.0,22.0,14,0.00,,,0.00,WUHU216DAVISVP2,2013-05-25 21:23:00,
2013-05-25 14:29:00,81.2,27.4,29.74,WSW,241,16.0,22.0,14,0.00,,,0.00,WUHU216DAVISVP2,2013-05-25 21:29:00,
2013-05-25 14:34:00,81.0,27.2,29.74,SW,220,19.0,22.0,14,0.00,,,0.00,WUHU216DAVISVP2,2013-05-25 21:34:00,
2013-05-25 14:39:00,81.4,27.5,29.74,SSW,211,16.0,23.0,14,0.00,,,0.00,WUHU216DAVISVP2,2013-05-25 21:39:00,
2013-05-25 14:44:00,80.5,28.6,29.74,SW,216,14.0,23.0,15,0.00,,,0.00,WUHU216DAVISVP2,2013-05-25 21:44:00,
2013-05-25 14:49:00,80.9,28.9,29.74,SSW,208,16.0,23.0,15,0.00,,,0.00,WUHU216DAVISVP2,2013-05-25 21:49:00,
2013-05-25 14:54:00,80.8,28.8,29.73,SW,234,11.0,25.0,15,0.00,,,0.00,WUHU216DAVISVP2,2013-05-25 21:54:00,
2013-05-25 14:59:00,81.0,27.2,29.73,SW,218,16.0,25.0,14,0.00,,,0.00,WUHU216DAVISVP2,2013-05-25 21:59:00,
2013-05-25 15:04:00,80.7,30.3,29.73,SW,229,15.0,28.0,16,0.00,,,0.00,WUHU216DAVISVP2,2013-05-25 22:04:00,
2013-05-25 15:09:00,80.2,29.9,29.74,SSW,210,15.0,28.0,16,0.00,,,0.00,WUHU216DAVISVP2,2013-05-25 22:09:00,
2013-05-25 15:14:00,80.5,28.6,29.74,SSW,209,20.0,28.0,15,0.00,,,0.00,WUHU216DAVISVP2,2013-05-25 22:14:00,
2013-05-25 15:19:00,80.4,28.5,29.73,SSW,206,16.0,28.0,15,0.00,,,0.00,WUHU216DAVISVP2,2013-05-25 22:19:00,
2013-05-25 15:24:00,79.5,27.8,29.74,SW,220,20.0,29.0,15,0.00,,,0.00,WUHU216DAVISVP2,2013-05-25 22:24:00,
2013-05-25 15:29:00,80.0,28.1,29.73,SW,219,16.0,29.0,15,0.00,,,0.00,WUHU216DAVISVP2,2013-05-25 22:29:00,
2013-05-25 15:34:00,80.0,28.1,29.73,SSW,205,23.0,29.0,15,0.00,,,0.00,WUHU216DAVISVP2,2013-05-25 22:34:00,
2013-05-25 15:39:00,79.8,28.0,29.73,SSW,207,22.0,29.0,15,0.00,,,0.00,WUHU216DAVISVP2,2013-05-25 22:39:00,
2013-05-25 15:44:00,79.5,27.7,29.74,SW,231,16.0,31.0,15,0.00,,,0.00,WUHU216DAVISVP2,2013-05-25 22:44:00,
2013-05-25 15:49:00,79.3,25.9,29.73,SW,214,20.0,31.0,14,0.00,,,0.00,WUHU216DAVISVP2,2013-05-25 22:49:00,
2013-05-25 15:54:00,79.7,26.2,29.73,SW,234,20.0,31.0,14,0.00,,,0.00,WUHU216DAVISVP2,2013-05-25 22:54:00,
2013-05-25 15:59:00,80.0,26.4,29.73,SW,235,18.0,30.0,14,0.00,,,0.00,WUHU216DAVISVP2,2013-05-25 22:59:00,
2013-05-25 16:04:00,80.1,26.5,29.73,WSW,240,18.0,34.0,14,0.00,,,0.00,WUHU216DAVISVP2,2013-05-25 23:04:00,
2013-05-25 16:09:00,79.9,24.5,29.73,SW,234,27.0,34.0,13,0.00,,,0.00,WUHU216DAVISVP2,2013-05-25 23:09:00,
2013-05-25 16:14:00,79.7,26.2,29.73,SSW,207,26.0,34.0,14,0.00,,,0.00,WUHU216DAVISVP2,2013-05-25 23:14:00,
2013-05-25 16:19:00,79.6,26.1,29.73,WSW,240,15.0,34.0,14,0.00,,,0.00,WUHU216DAVISVP2,2013-05-25 23:19:00,
2013-05-25 16:24:00,79.1,25.7,29.73,SW,234,18.0,31.0,14,0.00,,,0.00,WUHU216DAVISVP2,2013-05-25 23:24:00,
2013-05-25 16:29:00,79.1,25.7,29.73,SW,232,24.0,30.0,14,0.00,,,0.00,WUHU216DAVISVP2,2013-05-25 23:29:00,
2013-05-25 16:34:00,78.8,25.5,29.73,SW,233,14.0,30.0,14,0.00,,,0.00,WUHU216DAVISVP2,2013-05-25 23:34:00,
2013-05-25 16:40:00,78.5,25.3,29.73,SW,236,20.0,30.0,14,0.00,,,0.00,WUHU216DAVISVP2,2013-05-25 23:40:00,
2013-05-25 16:45:00,79.0,23.9,29.73,WSW,247,20.0,30.0,13,0.00,,,0.00,WUHU216DAVISVP2,2013-05-25 23:45:00,
2013-05-25 16:50:00,78.9,25.6,29.73,SW,221,23.0,32.0,14,0.00,,,0.00,WUHU216DAVISVP2,2013-05-25 23:50:00,
2013-05-25 16:55:00,78.5,25.3,29.73,SW,229,19.0,33.0,14,0.00,,,0.00,WUHU216DAVISVP2,2013-05-25 23:55:00,
2013-05-25 17:00:00,78.4,25.2,29.73,SW,227,21.0,33.0,14,0.00,,,0.00,WUHU216DAVISVP2,2013-05-26 00:00:00,
2013-05-25 17:05:00,78.6,25.4,29.73,SW,231,16.0,33.0,14,0.00,,,0.00,WUHU216DAVISVP2,2013-05-26 00:05:00,
2013-05-25 17:10:00,78.4,25.2,29.73,WSW,239,19.0,30.0,14,0.00,,,0.00,WUHU216DAVISVP2,2013-05-26 00:10:00,
2013-05-25 17:15:00,77.7,26.3,29.73,SW,225,15.0,30.0,15,0.00,,,0.00,WUHU216DAVISVP2,2013-05-26 00:15:00,
2013-05-25 17:20:00,77.5,26.1,29.73,SW,234,19.0,30.0,15,0.00,,,0.00,WUHU216DAVISVP2,2013-05-26 00:20:00,
2013-05-25 17:25:00,77.8,24.7,29.73,SW,229,22.0,30.0,14,0.00,,,0.00,WUHU216DAVISVP2,2013-05-26 00:25:00,
2013-05-25 17:30:00,77.3,26.0,29.73,SW,222,23.0,31.0,15,0.00,,,0.00,WUHU216DAVISVP2,2013-05-26 00:30:00,
2013-05-25 17:35:00,77.3,24.3,29.73,SW,235,22.0,31.0,14,0.00,,,0.00,WUHU216DAVISVP2,2013-05-26 00:35:00,
2013-05-25 17:40:00,77.3,24.3,29.73,WSW,242,14.0,31.0,14,0.00,,,0.00,WUHU216DAVISVP2,2013-05-26 00:40:00,
2013-05-25 17:45:00,77.2,24.3,29.73,WSW,241,10.0,31.0,14,0.00,,,0.00,WUHU216DAVISVP2,2013-05-26 00:45:00,
2013-05-25 17:50:00,77.2,24.3,29.73,SW,231,19.0,30.0,14,0.00,,,0.00,WUHU216DAVISVP2,2013-05-26 00:50:00,
2013-05-25 17:55:00,77.0,24.1,29.73,SW,226,22.0,30.0,14,0.00,,,0.00,WUHU216DAVISVP2,2013-05-26 00:55:00,
2013-05-25 18:00:00,76.8,24.0,29.72,WSW,238,14.0,30.0,14,0.00,,,0.00,WUHU216DAVISVP2,2013-05-26 01:00:00,
2013-05-25 18:05:00,76.8,24.0,29.73,WSW,246,20.0,31.0,14,0.00,,,0.00,WUHU216DAVISVP2,2013-05-26 01:05:00,
2013-05-25 18:10:00,76.8,24.0,29.72,WSW,248,22.0,31.0,14,0.00,,,0.00,WUHU216DAVISVP2,2013-05-26 01:10:00,
2013-05-25 18:15:00,76.6,23.8,29.72,SW,235,22.0,31.0,14,0.00,,,0.00,WUHU216DAVISVP2,2013-05-26 01:15:00,
2013-05-25 18:20:00,76.4,25.3,29.73,SW,223,25.0,31.0,15,0.00,,,0.00,WUHU216DAVISVP2,2013-05-26 01:20:00,
2013-05-25 18:25:00,76.3,25.2,29.72,WSW,252,18.0,29.0,15,0.00,,,0.00,WUHU216DAVISVP2,2013-05-26 01:25:00,
2013-05-25 18:30:00,76.2,25.1,29.73,SW,232,17.0,28.0,15,0.00,,,0.00,WUHU216DAVISVP2,2013-05-26 01:30:00,
2013-05-25 18:35:00,75.9,24.9,29.73,SW,227,18.0,28.0,15,0.00,,,0.00,WUHU216DAVISVP2,2013-05-26 01:35:00,
2013-05-25 18:40:00,75.6,24.7,29.73,SW,236,20.0,27.0,15,0.00,,,0.00,WUHU216DAVISVP2,2013-05-26 01:40:00,
2013-05-25 18:45:00,75.1,24.3,29.73,WSW,246,19.0,30.0,15,0.00,,,0.00,WUHU216DAVISVP2,2013-05-26 01:45:00,
2013-05-25 18:50:00,74.9,25.6,29.73,SSW,213,13.0,30.0,16,0.00,,,0.00,WUHU216DAVISVP2,2013-05-26 01:50:00,
2013-05-25 18:55:00,74.6,25.4,29.73,SW,229,14.0,30.0,16,0.00,,,0.00,WUHU216DAVISVP2,2013-05-26 01:55:00,
2013-05-25 19:01:00,74.4,25.2,29.73,SW,231,17.0,30.0,16,0.00,,,0.00,WUHU216DAVISVP2,2013-05-26 02:01:00,
2013-05-25 19:06:00,74.3,25.1,29.74,WSW,241,14.0,29.0,16,0.00,,,0.00,WUHU216DAVISVP2,2013-05-26 02:06:00,
2013-05-25 19:11:00,74.0,24.9,29.74,WSW,237,18.0,28.0,16,0.00,,,0.00,WUHU216DAVISVP2,2013-05-26 02:11:00,
2013-05-25 19:16:00,73.7,24.7,29.74,WSW,242,23.0,28.0,16,0.00,,,0.00,WUHU216DAVISVP2,2013-05-26 02:16:00,
2013-05-25 19:21:00,73.3,24.3,29.74,SSW,210,17.0,27.0,16,0.00,,,0.00,WUHU216DAVISVP2,2013-05-26 02:21:00,
2013-05-25 19:26:00,73.0,24.1,29.74,SW,232,22.0,27.0,16,0.00,,,0.00,WUHU216DAVISVP2,2013-05-26 02:26:00,
2013-05-25 19:31:00,72.8,25.4,29.74,SW,231,22.0,27.0,17,0.00,,,0.00,WUHU216DAVISVP2,2013-05-26 02:31:00,
2013-05-25 19:36:00,72.5,25.2,29.73,SW,229,14.0,27.0,17,0.00,,,0.00,WUHU216DAVISVP2,2013-05-26 02:36:00,
2013-05-25 19:41:00,72.2,24.9,29.73,WSW,240,26.0,27.0,17,0.00,,,0.00,WUHU216DAVISVP2,2013-05-26 02:41:00,
2013-05-25 19:46:00,72.0,24.8,29.74,WSW,238,13.0,26.0,17,0.00,,,0.00,WUHU216DAVISVP2,2013-05-26 02:46:00,
2013-05-25 19:51:00,71.7,24.5,29.74,WSW,244,17.0,28.0,17,0.00,,,0.00,WUHU216DAVISVP2,2013-05-26 02:51:00,
2013-05-25 19:56:00,71.4,24.3,29.74,SW,225,18.0,28.0,17,0.00,,,0.00,WUHU216DAVISVP2,2013-05-26 02:56:00,
2013-05-25 20:01:00,71.3,24.2,29.74,SW,228,18.0,28.0,17,0.00,,,0.00,WUHU216DAVISVP2,2013-05-26 03:01:00,
2013-05-25 20:06:00,71.2,24.1,29.74,SW,234,18.0,28.0,17,0.00,,,0.00,WUHU216DAVISVP2,2013-05-26 03:06:00,
2013-05-25 20:11:00,71.0,24.0,29.74,WSW,244,19.0,25.0,17,0.00,,,0.00,WUHU216DAVISVP2,2013-05-26 03:11:00,
2013-05-25 20:16:00,70.8,23.8,29.75,WSW,244,10.0,25.0,17,0.00,,,0.00,WUHU216DAVISVP2,2013-05-26 03:16:00,
2013-05-25 20:21:00,70.7,23.7,29.75,WSW,248,9.0,25.0,17,0.00,,,0.00,WUHU216DAVISVP2,2013-05-26 03:21:00,
2013-05-25 20:26:00,70.4,23.5,29.75,WSW,244,11.0,25.0,17,0.00,,,0.00,WUHU216DAVISVP2,2013-05-26 03:26:00,
2013-05-25 20:31:00,70.5,22.1,29.75,SW,229,13.0,24.0,16,0.00,,,0.00,WUHU216DAVISVP2,2013-05-26 03:31:00,
2013-05-25 20:36:00,70.5,22.1,29.75,WSW,250,8.0,18.0,16,0.00,,,0.00,WUHU216DAVISVP2,2013-05-26 03:36:00,
2013-05-25 20:41:00,70.4,22.0,29.75,SW,236,13.0,22.0,16,0.00,,,0.00,WUHU216DAVISVP2,2013-05-26 03:41:00,
2013-05-25 20:46:00,70.3,21.9,29.75,SW,221,13.0,22.0,16,0.00,,,0.00,WUHU216DAVISVP2,2013-05-26 03:46:00,
2013-05-25 20:51:00,70.2,21.8,29.75,WSW,251,12.0,22.0,16,0.00,,,0.00,WUHU216DAVISVP2,2013-05-26 03:51:00,
2013-05-25 20:56:00,70.1,21.8,29.75,WSW,238,17.0,22.0,16,0.00,,,0.00,WUHU216DAVISVP2,2013-05-26 03:56:00,
2013-05-25 21:01:00,69.9,21.6,29.76,SW,233,9.0,22.0,16,0.00,,,0.00,WUHU216DAVISVP2,2013-05-26 04:01:00,
2013-05-25 21:06:00,69.9,21.6,29.76,SW,231,7.0,22.0,16,0.00,,,0.00,WUHU216DAVISVP2,2013-05-26 04:06:00,
2013-05-25 21:12:00,69.7,21.4,29.76,SW,224,10.0,22.0,16,0.00,,,0.00,WUHU216DAVISVP2,2013-05-26 04:12:00,
2013-05-25 21:17:00,69.6,21.4,29.76,West,262,8.0,22.0,16,0.00,,,0.00,WUHU216DAVISVP2,2013-05-26 04:17:00,
2013-05-25 21:22:00,69.6,21.4,29.76,SW,235,9.0,22.0,16,0.00,,,0.00,WUHU216DAVISVP2,2013-05-26 04:22:00,
2013-05-25 21:27:00,69.5,22.7,29.76,SW,235,12.0,20.0,17,0.00,,,0.00,WUHU216DAVISVP2,2013-05-26 04:27:00,
2013-05-25 21:32:00,69.4,22.6,29.76,WSW,249,8.0,20.0,17,0.00,,,0.00,WUHU216DAVISVP2,2013-05-26 04:32:00,
2013-05-25 21:37:00,69.4,21.2,29.76,SW,234,9.0,20.0,16,0.00,,,0.00,WUHU216DAVISVP2,2013-05-26 04:37:00,
2013-05-25 21:42:00,69.7,21.4,29.76,SW,223,9.0,19.0,16,0.00,,,0.00,WUHU216DAVISVP2,2013-05-26 04:42:00,
2013-05-25 21:47:00,69.9,20.1,29.76,WSW,242,7.0,17.0,15,0.00,,,0.00,WUHU216DAVISVP2,2013-05-26 04:47:00,
2013-05-25 21:52:00,69.8,20.0,29.77,SW,224,12.0,17.0,15,0.00,,,0.00,WUHU216DAVISVP2,2013-05-26 04:52:00,
2013-05-25 21:57:00,69.9,20.1,29.77,WSW,257,7.0,17.0,15,0.00,,,0.00,WUHU216DAVISVP2,2013-05-26 04:57:00,
2013-05-25 22:02:00,69.7,19.9,29.77,WSW,248,9.0,17.0,15,0.00,,,0.00,WUHU216DAVISVP2,2013-05-26 05:02:00,
2013-05-25 22:07:00,69.4,19.7,29.77,WSW,241,11.0,16.0,15,0.00,,,0.00,WUHU216DAVISVP2,2013-05-26 05:07:00,
2013-05-25 22:12:00,69.3,21.1,29.77,West,273,3.0,16.0,16,0.00,,,0.00,WUHU216DAVISVP2,2013-05-26 05:12:00,
2013-05-25 22:17:00,69.2,21.0,29.77,SW,227,3.0,13.0,16,0.00,,,0.00,WUHU216DAVISVP2,2013-05-26 05:17:00,
2013-05-25 22:22:00,69.0,20.9,29.78,WSW,250,1.0,12.0,16,0.00,,,0.00,WUHU216DAVISVP2,2013-05-26 05:22:00,
2013-05-25 22:27:00,68.9,20.8,29.78,WNW,284,5.0,9.0,16,0.00,,,0.00,WUHU216DAVISVP2,2013-05-26 05:27:00,
2013-05-25 22:32:00,68.9,19.3,29.77,NW,309,3.0,9.0,15,0.00,,,0.00,WUHU216DAVISVP2,2013-05-26 05:32:00,
2013-05-25 22:37:00,68.9,19.3,29.77,NNE,25,6.0,7.0,15,0.00,,,0.00,WUHU216DAVISVP2,2013-05-26 05:37:00,
2013-05-25 22:42:00,69.1,19.4,29.78,NNE,32,6.0,7.0,15,0.00,,,0.00,WUHU216DAVISVP2,2013-05-26 05:42:00,
2013-05-25 22:47:00,69.2,19.5,29.78,NNE,25,0.0,7.0,15,0.00,,,0.00,WUHU216DAVISVP2,2013-05-26 05:47:00,
2013-05-25 22:52:00,69.2,19.5,29.78,ENE,67,5.0,7.0,15,0.00,,,0.00,WUHU216DAVISVP2,2013-05-26 05:52:00,
2013-05-25 22:57:00,69.2,19.5,29.78,SSW,193,7.0,13.0,15,0.00,,,0.00,WUHU216DAVISVP2,2013-05-26 05:57:00,
2013-05-25 23:02:00,69.5,19.7,29.77,SSW,208,6.0,13.0,15,0.00,,,0.00,WUHU216DAVISVP2,2013-05-26 06:02:00,
2013-05-25 23:07:00,69.5,19.7,29.77,South,184,2.0,13.0,15,0.00,,,0.00,WUHU216DAVISVP2,2013-05-26 06:07:00,
2013-05-25 23:12:00,69.5,19.7,29.77,South,184,0.0,13.0,15,0.00,,,0.00,WUHU216DAVISVP2,2013-05-26 06:12:00,
2013-05-25 23:18:00,69.1,19.4,29.77,South,184,0.0,9.0,15,0.00,,,0.00,WUHU216DAVISVP2,2013-05-26 06:18:00,
2013-05-25 23:23:00,68.3,18.8,29.78,South,184,0.0,9.0,15,0.00,,,0.00,WUHU216DAVISVP2,2013-05-26 06:23:00,
2013-05-25 23:28:00,67.8,19.9,29.77,South,184,0.0,4.0,16,0.00,,,0.00,WUHU216DAVISVP2,2013-05-26 06:28:00,
2013-05-25 23:33:00,67.9,20.0,29.77,South,184,0.0,4.0,16,0.00,,,0.00,WUHU216DAVISVP2,2013-05-26 06:33:00,
2013-05-25 23:38:00,67.5,19.7,29.77,South,184,0.0,4.0,16,0.00,,,0.00,WUHU216DAVISVP2,2013-05-26 06:38:00,
2013-05-25 23:43:00,66.9,19.2,29.77,South,188,2.0,4.0,16,0.00,,,0.00,WUHU216DAVISVP2,2013-05-26 06:43:00,
2013-05-25 23:48:00,67.0,20.7,29.77,WSW,250,4.0,12.0,17,0.00,,,0.00,WUHU216DAVISVP2,2013-05-26 06:48:00,
2013-05-25 23:53:00,67.2,19.4,29.77,WSW,247,6.0,12.0,16,0.00,,,0.00,WUHU216DAVISVP2,2013-05-26 06:53:00,
2013-05-25 23:59:00,67.0,22.0,29.77,WSW,257,8.0,17.0,18,0.00,,,0.00,WUHU216DAVISVP2,2013-05-26 06:59:00,